| time (UTC) | temp F | wind direction | speed knots | gust knots | rain 1hr in | rain 24hr in | rain mn in | humidity % | barometer mb |
| 20260902233329 | 79 | 318 | 0.0 | 0.9 | 0.00 | 0.00 | 0.00 | 73 | 1012.5 |
| 20260902231328 | 80 | 318 | 0.0 | 0.9 | 0.00 | 0.00 | 0.00 | 73 | 1012.5 |
| 20260902225329 | 80 | 318 | 0.0 | 0.0 | 0.00 | 0.00 | 0.00 | 72 | 1012.6 |
| 20260902224330 | 80 | 318 | 0.0 | 0.0 | 0.00 | 0.00 | 0.00 | 72 | 1012.5 |
| 20260902223329 | 80 | 318 | 0.0 | 0.0 | 0.00 | 0.00 | 0.00 | 72 | 1012.6 |
| 20260902222329 | 81 | 319 | 0.0 | 0.9 | 0.00 | 0.00 | 0.00 | 72 | 1012.6 |
| 20260902220328 | 81 | 318 | 0.0 | 0.9 | 0.00 | 0.00 | 0.00 | 71 | 1012.8 |
| 20260902215329 | 81 | 319 | 0.0 | 0.0 | 0.00 | 0.00 | 0.00 | 71 | 1012.8 |
| 20260902214329 | 81 | 319 | 0.0 | 0.0 | 0.00 | 0.00 | 0.00 | 70 | 1013.0 |
| 20260902213329 | 81 | 319 | 0.0 | 0.9 | 0.00 | 0.00 | 0.00 | 70 | 1012.9 |
| 20260902212330 | 82 | 319 | 0.0 | 0.0 | 0.00 | 0.00 | 0.00 | 69 | 1012.9 |
| 20260902211329 | 82 | 319 | 0.0 | 0.9 | 0.00 | 0.00 | 0.00 | 69 | 1012.9 |
| 20260902210329 | 82 | 318 | 0.0 | 0.0 | 0.00 | 0.00 | 0.00 | 69 | 1013.0 |
| 20260902205329 | 82 | 319 | 0.0 | 0.0 | 0.00 | 0.00 | 0.00 | 68 | 1013.0 |
| 20260902204328 | 82 | 318 | 0.0 | 0.9 | 0.00 | 0.00 | 0.00 | 69 | 1013.0 |
| 20260902202330 | 82 | 318 | 0.0 | 0.9 | 0.00 | 0.00 | 0.00 | 68 | 1013.0 |
| 20260902201329 | 82 | 318 | 0.0 | 0.0 | 0.00 | 0.00 | 0.00 | 68 | 1013.2 |
| 20260902200329 | 82 | 318 | 0.0 | 0.0 | 0.00 | 0.00 | 0.00 | 68 | 1013.1 |
| 20260902195329 | 82 | 318 | 0.0 | 0.0 | 0.00 | 0.00 | 0.00 | 67 | 1013.0 |
| 20260902194328 | 83 | 318 | 0.0 | 0.0 | 0.00 | 0.00 | 0.00 | 67 | 1013.1 |
| 20260902193329 | 83 | 318 | 0.0 | 0.9 | 0.00 | 0.00 | 0.00 | 67 | 1013.1 |
| 20260902192328 | 83 | 318 | 0.0 | 0.9 | 0.00 | 0.00 | 0.00 | 67 | 1013.1 |
| 20260902191328 | 83 | 318 | 0.0 | 1.7 | 0.00 | 0.00 | 0.00 | 67 | 1013.2 |
| 20260902190329 | 83 | 319 | 0.0 | 0.9 | 0.00 | 0.00 | 0.00 | 67 | 1013.4 |
| 20260902185329 | 83 | 319 | 0.0 | 0.9 | 0.00 | 0.00 | 0.00 | 67 | 1013.3 |
| 20260902184330 | 83 | 319 | 0.0 | 0.9 | 0.00 | 0.00 | 0.00 | 67 | 1013.2 |
| 20260902183329 | 83 | 319 | 0.0 | 0.9 | 0.00 | 0.00 | 0.00 | 66 | 1013.2 |
| 20260902181329 | 84 | 319 | 0.0 | 0.9 | 0.00 | 0.00 | 0.00 | 66 | 1013.2 |
| 20260902180328 | 84 | 319 | 0.0 | 1.7 | 0.00 | 0.00 | 0.00 | 66 | 1013.1 |
| 20260902175329 | 84 | 319 | 0.0 | 2.6 | 0.00 | 0.00 | 0.00 | 66 | 1013.1 |
| 20260902174328 | 84 | 318 | 0.0 | 1.7 | 0.00 | 0.00 | 0.00 | 66 | 1013.0 |
| 20260902173328 | 84 | 318 | 0.0 | 2.6 | 0.00 | 0.00 | 0.00 | 66 | 1012.9 |
| 20260902172328 | 85 | 317 | 0.0 | 2.6 | 0.00 | 0.00 | 0.00 | 66 | 1012.9 |
| 20260902171329 | 85 | 322 | 0.0 | 2.6 | 0.00 | 0.00 | 0.00 | 65 | 1012.8 |
| 20260902165328 | 85 | 324 | 0.0 | 1.7 | 0.00 | 0.00 | 0.00 | 65 | 1012.6 |
| 20260902164329 | 85 | 321 | 0.0 | 4.3 | 0.00 | 0.00 | 0.00 | 65 | 1012.6 |
| 20260902163329 | 86 | 324 | 0.0 | 4.3 | 0.00 | 0.00 | 0.00 | 64 | 1012.6 |
| 20260902162329 | 86 | 317 | 2.6 | 5.2 | 0.00 | 0.00 | 0.00 | 64 | 1012.5 |
| 20260902160328 | 86 | 323 | 0.9 | 5.2 | 0.00 | 0.00 | 0.00 | 63 | 1012.3 |
| 20260902155328 | 87 | 333 | 2.6 | 7.0 | 0.00 | 0.00 | 0.00 | 62 | 1012.3 |
| 20260902154329 | 87 | 317 | 2.6 | 10.4 | 0.00 | 0.00 | 0.00 | 62 | 1012.4 |
| 20260902153328 | 87 | 328 | 2.6 | 8.7 | 0.00 | 0.00 | 0.00 | 61 | 1012.5 |
| 20260902152328 | 88 | 321 | 1.7 | 7.0 | 0.00 | 0.00 | 0.00 | 61 | 1012.5 |
| 20260902151328 | 88 | 323 | 4.3 | 8.7 | 0.00 | 0.00 | 0.00 | 60 | 1012.4 |
| 20260902150328 | 88 | 328 | 2.6 | 7.8 | 0.00 | 0.00 | 0.00 | 59 | 1012.4 |
| 20260902145328 | 89 | 307 | 3.5 | 10.4 | 0.00 | 0.00 | 0.00 | 59 | 1012.3 |
| 20260902144329 | 89 | 318 | 4.3 | 10.4 | 0.00 | 0.00 | 0.00 | 59 | 1012.4 |
| 20260902143328 | 89 | 325 | 2.6 | 8.7 | 0.00 | 0.00 | 0.00 | 58 | 1012.3 |
| 20260902142328 | 90 | 321 | 4.3 | 10.4 | 0.00 | 0.00 | 0.00 | 58 | 1012.2 |
| 20260902140328 | 90 | 324 | 5.2 | 10.4 | 0.00 | 0.00 | 0.00 | 57 | 1012.2 |
| 20260902134328 | 91 | 340 | 5.2 | 11.3 | 0.00 | 0.00 | 0.00 | 56 | 1012.3 |
| 20260902133328 | 91 | 330 | 6.1 | 10.4 | 0.00 | 0.00 | 0.00 | 55 | 1012.2 |
| 20260902131328 | 92 | 312 | 4.3 | 13.0 | 0.00 | 0.00 | 0.00 | 54 | 1012.2 |
| 20260902130328 | 93 | 314 | 3.5 | 10.4 | 0.00 | 0.00 | 0.00 | 53 | 1012.4 |
| 20260902125329 | 93 | 311 | 6.1 | 11.3 | 0.00 | 0.00 | 0.00 | 53 | 1012.3 |
| 20260902124329 | 93 | 327 | 5.2 | 10.4 | 0.00 | 0.00 | 0.00 | 53 | 1012.4 |
| 20260902123328 | 94 | 321 | 5.2 | 10.4 | 0.00 | 0.00 | 0.00 | 52 | 1012.4 |
| 20260902122328 | 94 | 306 | 5.2 | 10.4 | 0.00 | 0.00 | 0.00 | 52 | 1012.3 |
| 20260902121328 | 93 | 305 | 5.2 | 8.7 | 0.00 | 0.00 | 0.00 | 53 | 1012.4 |
| 20260902120328 | 93 | 316 | 4.3 | 11.3 | 0.00 | 0.00 | 0.00 | 54 | 1012.5 |
| 20260902115328 | 92 | 2 | 3.5 | 11.3 | 0.00 | 0.00 | 0.00 | 54 | 1012.5 |
| 20260902114328 | 92 | 305 | 7.0 | 12.2 | 0.00 | 0.00 | 0.00 | 56 | 1012.7 |
| 20260902113328 | 91 | 337 | 3.5 | 10.4 | 0.00 | 0.00 | 0.00 | 57 | 1012.6 |
| 20260902112328 | 90 | 319 | 3.5 | 10.4 | 0.00 | 0.00 | 0.00 | 58 | 1012.6 |
| 20260902111328 | 90 | 310 | 4.3 | 11.3 | 0.00 | 0.00 | 0.00 | 58 | 1012.7 |
| 20260902110328 | 90 | 297 | 5.2 | 11.3 | 0.00 | 0.00 | 0.00 | 59 | 1012.7 |
| 20260902103328 | 89 | 307 | 4.3 | 11.3 | 0.00 | 0.00 | 0.00 | 61 | 1013.1 |
| 20260902102328 | 89 | 331 | 4.3 | 8.7 | 0.00 | 0.00 | 0.00 | 62 | 1013.0 |
| 20260902101328 | 88 | 294 | 3.5 | 10.4 | 0.00 | 0.00 | 0.00 | 62 | 1013.1 |
| 20260902100328 | 88 | 304 | 3.5 | 8.7 | 0.00 | 0.00 | 0.00 | 63 | 1013.2 |
| 20260902095328 | 88 | 289 | 4.3 | 8.7 | 0.00 | 0.00 | 0.00 | 63 | 1013.3 |
| 20260902094327 | 88 | 336 | 4.3 | 10.4 | 0.00 | 0.00 | 0.00 | 64 | 1013.3 |
| 20260902093328 | 87 | 302 | 4.3 | 10.4 | 0.00 | 0.00 | 0.00 | 65 | 1013.4 |
| 20260902092328 | 87 | 281 | 5.2 | 8.7 | 0.00 | 0.00 | 0.00 | 65 | 1013.5 |
| 20260902091328 | 87 | 314 | 4.3 | 10.4 | 0.00 | 0.00 | 0.00 | 65 | 1013.5 |
| 20260902090327 | 87 | 306 | 4.3 | 8.7 | 0.00 | 0.00 | 0.00 | 65 | 1013.6 |
| 20260902085328 | 87 | 313 | 4.3 | 7.0 | 0.00 | 0.00 | 0.00 | 65 | 1013.6 |
| 20260902084328 | 87 | 293 | 2.6 | 10.4 | 0.00 | 0.00 | 0.00 | 65 | 1013.7 |
| 20260902082328 | 86 | 305 | 2.6 | 7.0 | 0.00 | 0.00 | 0.00 | 66 | 1013.7 |
| 20260902081328 | 86 | 265 | 1.7 | 7.8 | 0.00 | 0.00 | 0.00 | 66 | 1014.0 |
| 20260902075328 | 85 | 294 | 0.9 | 6.1 | 0.00 | 0.00 | 0.00 | 67 | 1013.9 |
| 20260902073328 | 85 | 319 | 0.9 | 2.6 | 0.00 | 0.00 | 0.00 | 67 | 1014.0 |
| 20260902072328 | 84 | 319 | 0.9 | 6.1 | 0.00 | 0.00 | 0.00 | 68 | 1013.9 |
| 20260902070328 | 83 | 308 | 0.9 | 5.2 | 0.00 | 0.00 | 0.00 | 69 | 1013.9 |
| 20260902065328 | 83 | 309 | 0.0 | 2.6 | 0.00 | 0.00 | 0.00 | 71 | 1014.0 |
| 20260902063327 | 82 | 307 | 0.0 | 2.6 | 0.00 | 0.00 | 0.00 | 71 | 1014.0 |
| 20260902062327 | 82 | 307 | 0.0 | 4.3 | 0.00 | 0.00 | 0.00 | 73 | 1014.1 |
| 20260902060328 | 81 | 329 | 0.0 | 1.7 | 0.00 | 0.00 | 0.00 | 74 | 1014.1 |
| 20260902055328 | 81 | 330 | 0.0 | 2.6 | 0.00 | 0.00 | 0.00 | 74 | 1014.1 |
| 20260902054328 | 81 | 330 | 0.0 | 0.9 | 0.00 | 0.00 | 0.00 | 75 | 1014.1 |
| 20260902053328 | 80 | 330 | 0.0 | 0.9 | 0.00 | 0.00 | 0.00 | 75 | 1014.0 |
| 20260902052328 | 80 | 330 | 0.0 | 0.9 | 0.00 | 0.00 | 0.00 | 75 | 1014.1 |
| 20260902051328 | 80 | 330 | 0.0 | 0.9 | 0.00 | 0.00 | 0.00 | 75 | 1014.0 |
| 20260902044327 | 78 | 330 | 0.0 | 0.0 | 0.00 | 0.00 | 0.00 | 75 | 1014.0 |
| 20260902043328 | 78 | 330 | 0.0 | 0.9 | 0.00 | 0.00 | 0.00 | 75 | 1014.1 |
| 20260902042327 | 77 | 330 | 0.0 | 0.0 | 0.00 | 0.00 | 0.00 | 75 | 1014.0 |
| 20260902041328 | 77 | 330 | 0.0 | 0.0 | 0.00 | 0.00 | 0.00 | 75 | 1014.0 |
| 20260902040327 | 77 | 330 | 0.0 | 0.0 | 0.00 | 0.00 | 0.00 | 75 | 1013.9 |
| 20260902034328 | 77 | 330 | 0.0 | 0.0 | 0.00 | 0.00 | 0.00 | 74 | 1013.9 |
| 20260902033328 | 77 | 330 | 0.0 | 0.0 | 0.00 | 0.00 | 0.00 | 74 | 1013.8 |
| 20260902032328 | 77 | 330 | 0.0 | 0.0 | 0.00 | 0.00 | 0.00 | 74 | 1013.8 |
| 20260902031328 | 77 | 330 | 0.0 | 0.0 | 0.00 | 0.00 | 0.00 | 74 | 1013.7 |
| 20260902030328 | 77 | 330 | 0.0 | 0.0 | 0.00 | 0.00 | 0.00 | 74 | 1013.7 |
| 20260902025328 | 77 | 330 | 0.0 | 0.0 | 0.00 | 0.00 | 0.00 | 73 | 1013.6 |
| 20260902024328 | 77 | 330 | 0.0 | 0.0 | 0.00 | 0.00 | 0.00 | 73 | 1013.5 |
| 20260902022327 | 77 | 330 | 0.0 | 0.0 | 0.00 | 0.00 | 0.00 | 73 | 1013.4 |
| 20260902021327 | 77 | 330 | 0.0 | 0.0 | 0.00 | 0.00 | 0.00 | 73 | 1013.4 |
| 20260902020327 | 77 | 330 | 0.0 | 0.0 | 0.00 | 0.00 | 0.00 | 73 | 1013.4 |
| 20260902014328 | 78 | 330 | 0.0 | 1.7 | 0.00 | 0.00 | 0.00 | 73 | 1013.3 |
| 20260902013327 | 78 | 330 | 0.0 | 0.0 | 0.00 | 0.00 | 0.00 | 72 | 1013.3 |
| 20260902011327 | 78 | 330 | 0.0 | 0.0 | 0.00 | 0.00 | 0.00 | 72 | 1013.3 |
| 20260902010328 | 78 | 330 | 0.0 | 0.0 | 0.00 | 0.00 | 0.00 | 72 | 1013.4 |
| 20260902005328 | 79 | 330 | 0.0 | 0.0 | 0.00 | 0.00 | 0.00 | 72 | 1013.3 |
| 20260902004327 | 79 | 330 | 0.0 | 0.0 | 0.00 | 0.00 | 0.00 | 71 | 1013.4 |
| 20260902003327 | 79 | 330 | 0.0 | 0.0 | 0.00 | 0.00 | 0.00 | 72 | 1013.4 |
| 20260902002327 | 79 | 330 | 0.0 | 0.0 | 0.00 | 0.00 | 0.00 | 71 | 1013.3 |
| 20260902001327 | 80 | 330 | 0.0 | 0.9 | 0.00 | 0.00 | 0.00 | 71 | 1013.3 |
| 20260902000329 | 80 | 330 | 0.0 | 0.0 | 0.00 | 0.00 | 0.00 | 70 | 1013.3 |